Regional Weather Roundup
Issued by NWS State College, PA

Home | Current Version | Previous Version | Text Only | Print | Product List | Glossary On
Versions: 1 2 3 4 5 6 7 8 9 10 11 12 13 14 15 16 17 18 19 20 21 22 23 24 25 26 27 28 29 30 31 32 33 34 35 36 37 38 39 40 41 42 43 44 45 46 47 48 49 50
945
ASUS41 KCTP 270103
RWRCTP

REGIONAL WEATHER ROUNDUP
NATIONAL WEATHER SERVICE STATE COLLEGE PA
900 PM EDT SUN MAR 26 2017

Note: "fair" indicates few or no clouds below 12,000 feet with no
significant weather and/or obstructions to visibility.

* = STATION THAT DOES NOT REPORT PRECIPITATION /E.G. RAIN...SNOW...ETC/
    THUNDER OR FOG.

PAZ002>004-007>009-013>016-020>023-029>032-270200-
WESTERN PENNSYLVANIA

CITY           SKY/WX    TMP DP  RH WIND       PRES   REMARKS
ERIE           LGT RAIN  53  48  83 S14       29.96R
MEADVILLE      LGT RAIN  50  32  50 SE8       29.98R
FRANKLIN*      CLOUDY    46  43  87 SE16G26   30.01F
NEW CASTLE     MOCLDY    54  52  93 SE7       30.00F
BEAVER COUNTY  NOT AVBL
BUTLER*        CLOUDY    50  46  87 E13G18    30.02F
PITTSBURGH INT CLOUDY    54  53  97 SE12      30.00F
PITTSBURGH     LGT RAIN  52  49  89 SE13      30.01F FOG
INDIANA*       MOCLDY    48  46  93 S8G16     30.12R FOG
LATROBE        NOT AVBL
WASHINGTON CO* CLOUDY    54  52  94 SE10      30.04R
$$

PAZ004>006-010>012-017>019-024>028-033>037-041-042-045-046-049>053-270200-
CENTRAL PENNSYLVANIA

CITY           SKY/WX    TMP DP  RH WIND       PRES   REMARKS
BRADFORD       CLOUDY    41  41 100 S8G18     30.08R FOG
DUBOIS         LGT RAIN  43  40  89 SE10G20   30.08R FOG
CLEARFIELD       N/A    N/A N/A N/A MISG      30.14S
JOHNSTOWN      LGT RAIN  43  43 100 SE7       30.10S VSB 1/2
ALTOONA        CLOUDY    44  43  96 SE10      30.17S FOG
STATE COLLEGE  CLOUDY    41  39  93 SE6       30.18S
WILLIAMSPORT   CLOUDY    42  38  85 E13G20    30.23S FOG
SELINSGROVE    CLOUDY    41  39  93 SE6       30.26S
FT INDIANTOWN  CLOUDY    40  40 100 E9        30.28R FOG
CAPITAL CITY   CLOUDY    44  41  89 E8        30.27R FOG
HARRISBURG     CLOUDY    43  43 100 E8        30.26R FOG
YORK           CLOUDY    43  43 100 E7        30.25S FOG
$$

PAZ038>040-043-044-047-048-054-055-060>062-067>071-270200-
EASTERN PENNSYLVANIA

CITY           SKY/WX    TMP DP  RH WIND       PRES   REMARKS
SCRANTON       CLOUDY    39  35  86 CALM      30.25R
MOUNT POCONO   FOG       31  31 100 SE15      30.23F VSB 1/4
ALLENTOWN      CLOUDY    40  35  83 E10       30.30F
QUAKERTOWN*    CLOUDY    37  37 100 E8        30.30F
READING        CLOUDY    41  40  96 E8        30.29R FOG
LANCASTER      CLOUDY    42  42 100 SE8       30.28R FOG
COATESVILLE    MIX PCPN  41  41 100 E13G20    30.28S VSB 1
POTTSTOWN      CLOUDY    39  38  96 E7        30.31S FOG
BLUE BELL      CLOUDY    37  37 100 E9        30.30R
DOYLESTOWN     CLOUDY    38  38 100 E3        30.31S
WILLOW GROVE   NOT AVBL
NORTH PHILA    CLOUDY    41  40  96 E14       30.33F FOG
PHILADELPHIA   CLOUDY    42  39  89 E10       30.32S
$$




USA.gov is the U.S. government's official web portal to all federal, state and local government web resources and services.